Temp
85 88 79 79 79 79 79 79 79 79 78 78 78 78 78 78 78 78 78 78 78 79 79 79 79 78 79 78 78 77 77 77 78 78 79 79 78 76 79 80 81 86 79
88 87 79 79 79 79 79 79 78 78 78 78 78 78 78 78 78 78 78 78 78 79 79 79 78 78 78 78 78 77 77 77 77 77 78 77 77 78 78 80 81 84 79
86 85 82 79 79 79 79 79 78 78 78 78 78 78 78 78 78 78 77 77 78 79 79 79 78 78 78 78 77 77 77 77 77 77 77 86 84 78 79 79 81 80 79
85 84 85 79 79 79 79 78 78 78 78 78 78 78 78 77 78 78 77 78 79 79 79 78 78 78 77 77 77 77 77 77 77 77 85 84 83 77 78 79 78 80 79
84 84 84 78 78 79 79 78 77 77 77 78 78 78 78 77 77 77 77 78 79 79 79 78 78 78 77 77 77 76 76 76 77 79 82 83 83 81 77 78 80 80 79
85 85 82 78 78 78 79 78 77 77 77 77 78 78 77 77 77 77 77 77 78 79 78 78 78 77 77 77 77 77 76 76 76 82 82 80 81 75 76 77 78 79 79
86 85 85 78 78 78 79 78 77 77 77 77 77 77 77 77 77 76 77 77 78 78 78 78 77 77 77 77 77 77 77 76 82 82 81 81 82 73 76 78 79 79 78
86 84 85 79 78 78 78 78 77 77 77 77 77 77 77 77 76 76 77 77 77 77 77 77 77 77 76 76 75 75 75 76 82 82 81 82 76 74 76 78 79 79 78
87 84 84 86 81 78 77 77 77 76 76 76 76 76 77 76 76 76 76 76 77 77 77 77 77 76 76 75 75 75 75 76 82 83 82 82 75 75 76 77 79 78 78
86 86 84 83 84 84 83 77 77 76 76 76 76 76 76 76 76 76 75 75 76 76 76 76 76 76 75 75 75 75 75 75 81 82 82 83 73 75 76 77 79 78 78
86 83 82 82 82 82 85 82 77 77 76 76 77 76 76 81 81 80 78 76 76 76 76 76 75 75 75 75 75 75 75 82 81 82 83 75 73 75 76 77 77 78 78
87 86 85 79 81 82 83 82 81 82 82 81 81 80 80 80 80 79 79 75 75 76 76 75 75 75 76 83 83 75 82 81 81 81 82 74 73 75 76 77 77 78 78
93 89 86 80 79 81 82 82 82 83 82 81 80 79 80 79 79 80 81 80 80 77 81 80 80 81 81 81 81 81 81 79 81 81 80 73 73 75 76 76 77 77 77
89 90 89 83 79 79 84 82 82 83 81 81 81 78 79 78 77 79 80 81 78 81 80 80 81 80 79 79 79 79 79 80 82 81 80 72 73 74 75 76 77 77 77
87 90 88 85 80 79 78 82 80 81 81 82 81 79 79 79 76 78 78 79 78 78 80 79 80 78 78 78 79 78 79 79 79 80 81 73 72 74 75 76 77 78 78
86 86 88 84 81 79 78 78 79 79 81 80 81 80 77 79 77 77 77 76 73 75 79 78 78 78 78 78 77 77 77 79 79 78 81 79 72 73 74 75 77 78 77
87 85 82 82 82 78 77 78 79 80 80 80 80 78 77 76 75 75 77 75 73 72 73 73 73 75 75 77 76 78 78 77 78 77 79 79 77 72 73 75 76 77 77
83 83 83 86 82 79 79 79 80 81 80 81 80 79 76 75 75 75 75 75 74 70 70 70 73 73 75 76 76 77 77 77 77 76 78 79 80 81 77 73 75 76 76
83 81 82 80 80 79 79 79 78 77 78 80 79 78 75 74 74 76 74 72 74 73 70 72 73 73 74 75 75 75 73 75 76 75 76 77 78 79 81 75 74 74 75
81 80 78 80 77 78 79 77 79 79 78 79 78 77 75 74 75 75 72 72 75 74 74 72 72 74 75 73 72 69 71 75 76 74 75 77 78 78 78 73 80 80 74
81 79 79 78 77 76 77 76 76 76 76 75 76 74 75 75 75 74 73 72 74 74 73 72 72 72 72 68 65 68 72 72 72 74 75 76 76 77 77 75 74 75 80
79 79 79 78 76 75 77 77 78 78 74 74 74 75 75 75 74 74 72 71 70 75 73 72 72 67 66 66 66 65 67 69 71 72 74 73 72 77 78 76 67 72 79
79 78 79 79 75 75 77 76 75 74 70 71 70 69 72 74 74 73 73 73 74 75 74 71 70 66 68 64 65 69 65 66 69 68 67 68 67 70 72 75 73 69 76
79 81 78 77 74 75 74 75 73 77 72 74 70 71 70 74 74 74 73 74 74 69 67 69 72 67 68 68 63 66 68 69 64 61 66 67 64 69 71 71 75 75 75
80 77 75 75 74 74 74 76 76 76 77 76 75 71 71 73 75 75 75 74 73 69 69 72 70 69 71 71 69 64 65 69 67 65 60 60 61 68 70 66 66 73 76
77 76 75 74 73 73 74 74 75 73 73 74 73 73 73 75 75 75 75 75 73 71 72 72 71 70 69 68 70 69 70 68 67 64 62 57 58 62 64 64 68 73 77
MSLP
1007.74 1008.17 1009.09 1009.64 1010.06 1010.48 1011.01 1011.37 1011.68 1012.00 1012.22 1012.35 1012.41 1012.67 1012.96 1013.17 1013.29 1013.41 1013.68 1013.82 1014.08 1014.35 1014.69 1015.00 1015.15 1015.30 1015.38 1015.53 1015.72 1015.64 1015.71 1015.76 1015.77 1015.71 1015.68 1015.66 1015.67 1015.86 1015.66 1015.52 1015.54 1015.35 1015.89
1006.61 1007.83 1008.78 1009.34 1009.76 1010.06 1010.70 1011.21 1011.51 1011.91 1012.10 1012.31 1012.49 1012.73 1013.00 1013.19 1013.41 1013.62 1013.73 1013.86 1014.13 1014.34 1014.61 1014.83 1015.07 1015.27 1015.41 1015.55 1015.69 1015.78 1015.81 1015.84 1015.83 1015.81 1015.79 1015.80 1015.78 1015.83 1015.72 1015.66 1015.60 1015.46 1015.95
1006.60 1007.46 1008.49 1008.96 1009.53 1009.90 1010.29 1010.90 1011.29 1011.70 1012.01 1012.42 1012.63 1012.91 1013.23 1013.33 1013.59 1013.88 1014.05 1014.08 1014.16 1014.32 1014.59 1014.75 1015.00 1015.22 1015.34 1015.52 1015.66 1015.71 1015.81 1015.85 1015.89 1015.81 1015.73 1015.52 1015.55 1015.86 1015.84 1015.74 1015.72 1015.86 1015.90
1006.71 1007.41 1008.04 1008.80 1009.28 1009.89 1010.04 1010.44 1011.09 1011.31 1011.68 1012.27 1012.67 1012.91 1013.16 1013.42 1013.71 1014.03 1014.26 1014.37 1014.47 1014.48 1014.53 1014.73 1014.92 1015.15 1015.25 1015.35 1015.55 1015.68 1015.73 1015.76 1015.79 1015.75 1015.36 1015.49 1015.64 1015.87 1015.93 1015.85 1015.86 1015.86 1015.91
1006.87 1007.47 1007.95 1008.53 1008.99 1009.54 1009.92 1010.15 1010.75 1011.20 1011.43 1011.99 1012.41 1012.78 1013.02 1013.34 1013.69 1013.86 1014.06 1014.31 1014.47 1014.65 1014.70 1014.84 1015.02 1015.21 1015.28 1015.38 1015.57 1015.66 1015.72 1015.70 1015.67 1015.61 1015.42 1015.44 1015.56 1015.61 1015.91 1015.87 1015.65 1015.66 1015.89
1006.88 1007.39 1008.11 1008.32 1008.72 1009.29 1009.64 1010.04 1010.45 1010.94 1011.34 1011.60 1012.07 1012.52 1012.81 1012.97 1013.31 1013.68 1013.84 1014.10 1014.34 1014.58 1014.71 1014.86 1015.07 1015.20 1015.29 1015.41 1015.53 1015.56 1015.59 1015.59 1015.58 1015.28 1015.45 1015.50 1015.49 1015.78 1015.72 1015.66 1015.63 1015.53 1015.70
1006.69 1007.31 1007.74 1008.11 1008.67 1009.16 1009.55 1009.99 1010.28 1010.71 1011.10 1011.33 1011.74 1012.23 1012.59 1012.67 1012.97 1013.36 1013.72 1014.11 1014.25 1014.36 1014.60 1014.88 1015.03 1015.03 1015.13 1015.29 1015.42 1015.49 1015.48 1015.46 1015.06 1015.09 1015.24 1015.39 1015.37 1015.76 1015.60 1015.26 1015.11 1015.35 1015.59
1006.45 1007.15 1007.55 1008.33 1008.47 1008.99 1009.43 1009.96 1010.28 1010.62 1011.02 1011.39 1011.52 1011.76 1012.19 1012.50 1012.69 1012.99 1013.38 1013.79 1014.07 1014.28 1014.41 1014.72 1014.89 1014.95 1015.06 1015.19 1015.35 1015.43 1015.49 1015.44 1014.98 1014.93 1015.11 1015.20 1015.47 1015.63 1015.43 1015.16 1015.01 1015.25 1015.48
1006.69 1007.18 1007.47 1007.77 1008.53 1008.95 1009.48 1009.92 1009.99 1010.33 1010.68 1011.20 1011.41 1011.59 1012.05 1012.36 1012.54 1012.60 1012.92 1013.47 1013.68 1013.91 1014.27 1014.42 1014.59 1014.74 1014.85 1015.05 1015.22 1015.32 1015.35 1015.28 1014.91 1014.64 1014.88 1014.94 1015.36 1015.48 1015.36 1015.11 1015.09 1015.15 1015.36
1006.80 1007.02 1007.35 1007.84 1008.16 1008.60 1009.18 1009.72 1009.90 1010.16 1010.50 1010.63 1011.10 1011.42 1011.81 1012.21 1012.53 1012.70 1012.93 1013.22 1013.30 1013.59 1013.83 1014.12 1014.30 1014.59 1014.77 1014.91 1015.06 1015.10 1015.17 1015.16 1014.78 1014.55 1014.59 1014.69 1015.35 1015.32 1015.24 1015.13 1015.03 1015.17 1015.30
1006.34 1006.71 1007.19 1007.54 1007.84 1008.11 1008.45 1008.98 1009.51 1009.79 1010.16 1010.49 1010.97 1011.27 1011.63 1011.85 1012.25 1012.71 1012.90 1012.95 1013.03 1013.28 1013.44 1013.74 1014.04 1014.34 1014.64 1014.83 1014.90 1014.89 1014.93 1014.43 1014.53 1014.45 1014.31 1014.80 1015.20 1015.23 1015.16 1015.12 1015.05 1015.16 1015.29
1005.50 1005.85 1006.46 1006.97 1007.30 1007.73 1008.07 1008.33 1008.67 1009.02 1009.44 1009.80 1010.22 1010.65 1011.16 1011.60 1011.83 1011.99 1012.23 1012.72 1012.89 1013.16 1013.36 1013.57 1013.88 1014.26 1014.51 1014.18 1014.27 1014.66 1014.24 1014.33 1014.42 1014.30 1014.19 1014.68 1014.92 1014.98 1015.02 1014.99 1014.99 1015.07 1015.24
1004.65 1005.11 1005.71 1006.24 1006.63 1007.08 1007.53 1007.85 1008.05 1008.32 1008.76 1009.19 1009.60 1010.10 1010.61 1011.01 1011.38 1011.81 1012.11 1012.40 1012.63 1012.96 1013.02 1013.29 1013.58 1013.69 1013.73 1014.00 1014.15 1014.17 1014.08 1014.27 1014.09 1014.08 1014.09 1014.57 1014.68 1014.67 1014.72 1014.75 1014.80 1014.88 1015.04
1004.31 1004.23 1004.72 1005.53 1006.20 1006.39 1006.76 1007.07 1007.22 1007.38 1007.66 1008.18 1008.73 1009.56 1010.10 1010.50 1010.88 1011.05 1011.44 1011.68 1012.36 1012.62 1012.67 1012.95 1013.07 1013.44 1013.70 1013.88 1014.00 1013.97 1013.95 1013.93 1013.85 1013.85 1013.92 1014.40 1014.41 1014.38 1014.40 1014.47 1014.47 1014.57 1014.88
1004.15 1003.84 1003.98 1004.79 1005.17 1005.49 1006.07 1006.36 1006.50 1006.49 1006.83 1007.00 1007.77 1008.53 1008.91 1009.39 1010.09 1010.57 1011.14 1011.53 1011.94 1012.44 1012.62 1012.80 1012.92 1013.28 1013.53 1013.66 1013.62 1013.74 1013.66 1013.68 1013.77 1013.76 1013.66 1014.01 1014.07 1014.05 1014.10 1014.23 1014.19 1014.29 1014.53
1003.70 1003.71 1003.59 1004.02 1004.50 1004.93 1005.15 1005.33 1005.33 1005.82 1005.87 1006.49 1006.80 1007.20 1008.02 1008.46 1009.23 1010.01 1010.65 1011.18 1011.63 1011.61 1011.99 1012.41 1012.62 1012.90 1013.23 1013.33 1013.44 1013.43 1013.47 1013.40 1013.39 1013.53 1013.39 1013.57 1013.84 1013.82 1013.86 1013.96 1013.99 1014.05 1014.30
1003.20 1003.30 1003.27 1003.54 1003.89 1004.13 1004.13 1004.22 1004.63 1004.79 1005.25 1005.52 1006.12 1006.72 1007.52 1008.07 1008.81 1009.39 1010.10 1010.64 1011.03 1011.10 1011.05 1011.24 1011.71 1012.23 1012.92 1013.01 1013.09 1013.04 1013.06 1013.11 1013.00 1013.19 1013.21 1013.32 1013.33 1013.54 1013.56 1013.70 1013.78 1013.82 1014.10
1002.91 1002.88 1002.62 1002.79 1003.05 1003.02 1003.12 1003.26 1003.79 1004.01 1004.53 1004.97 1005.56 1006.24 1007.10 1007.66 1008.22 1008.92 1009.56 1009.88 1010.25 1010.86 1011.32 1011.96 1012.02 1011.68 1012.24 1012.54 1012.59 1012.65 1012.84 1012.78 1012.79 1012.94 1012.91 1012.89 1012.90 1012.86 1012.98 1013.35 1013.36 1013.58 1013.96
1001.99 1002.04 1001.89 1002.11 1002.25 1002.01 1002.35 1002.78 1003.12 1003.79 1004.20 1004.51 1005.06 1005.70 1006.42 1007.22 1007.85 1008.22 1008.75 1009.36 1009.87 1010.66 1011.47 1011.66 1011.72 1011.83 1011.67 1012.08 1012.18 1012.44 1012.61 1012.63 1012.59 1012.64 1012.57 1012.65 1012.63 1012.82 1012.64 1012.89 1013.13 1013.57 1013.88
1001.23 1001.20 1001.21 1001.42 1001.42 1001.56 1001.94 1002.54 1002.70 1003.22 1003.65 1004.07 1004.58 1005.28 1006.02 1006.61 1006.96 1007.58 1008.39 1009.23 1009.87 1010.40 1010.96 1011.39 1011.35 1011.51 1011.57 1011.85 1012.12 1012.46 1012.54 1012.31 1012.29 1012.34 1012.39 1012.30 1012.26 1012.45 1012.61 1012.88 1012.81 1013.13 1013.78
1000.51 1000.56 1000.41 1000.50 1000.76 1001.10 1001.44 1002.02 1002.21 1002.29 1002.98 1003.83 1004.23 1004.96 1005.53 1005.98 1006.40 1007.27 1007.82 1008.61 1009.41 1009.76 1010.18 1010.69 1010.98 1011.22 1011.59 1012.19 1012.44 1012.24 1011.92 1011.93 1011.98 1011.98 1012.08 1012.08 1012.04 1012.04 1012.34 1012.67 1012.89 1013.20 1013.23
999.52 999.50 999.38 999.62 999.72 1000.22 1000.54 1000.96 1001.39 1001.75 1002.74 1003.60 1004.13 1004.49 1005.03 1005.55 1006.10 1006.86 1007.78 1008.43 1008.76 1008.95 1009.79 1010.24 1010.78 1011.26 1011.67 1012.05 1012.02 1012.01 1011.07 1011.18 1011.41 1011.69 1011.90 1011.96 1011.94 1011.70 1011.87 1012.35 1012.95 1013.16 1013.06
998.78 998.65 998.72 998.93 999.15 999.46 1000.00 1000.65 1001.21 1002.01 1002.85 1003.31 1003.68 1004.26 1004.82 1005.30 1005.96 1006.71 1007.14 1007.72 1008.43 1008.81 1009.28 1009.85 1010.59 1010.92 1011.11 1011.86 1012.01 1011.40 1011.10 1010.47 1010.90 1011.67 1011.98 1012.26 1012.16 1012.02 1011.99 1012.09 1012.56 1013.08 1012.99
997.71 998.13 998.29 998.47 998.72 999.12 999.71 999.87 1000.26 1000.37 1001.50 1002.32 1003.09 1003.96 1004.69 1005.12 1005.79 1006.41 1006.89 1007.57 1008.21 1008.81 1009.39 1009.74 1010.17 1010.74 1010.92 1010.89 1011.76 1011.67 1011.45 1011.15 1010.72 1011.19 1011.86 1012.28 1012.33 1012.08 1012.05 1012.28 1012.43 1012.72 1012.95
997.30 997.67 997.83 997.94 998.34 998.69 999.12 999.50 1000.02 1000.51 1001.14 1001.90 1002.64 1003.70 1004.54 1005.06 1005.60 1006.19 1006.79 1007.45 1007.91 1008.61 1009.11 1009.37 1009.98 1010.32 1010.38 1010.40 1010.67 1011.15 1011.24 1011.01 1011.00 1010.86 1011.40 1012.36 1012.54 1012.47 1012.53 1012.63 1012.63 1012.59 1012.67
996.95 997.18 997.44 997.70 998.06 998.58 999.03 999.40 999.93 1000.56 1001.05 1001.79 1002.60 1003.47 1004.21 1004.72 1005.32 1006.13 1006.68 1007.19 1007.80 1008.45 1008.83 1009.21 1009.61 1009.84 1010.09 1010.33 1010.37 1010.44 1010.30 1010.27 1010.34 1010.85 1011.30 1012.28 1012.55 1012.79 1012.90 1012.81 1012.56 1012.36 1012.37
Wind_Speed
10 21 23 21 20 19 19 18 17 16 15 15 16 16 15 14 14 15 15 14 13 12 11 9 8 7 7 6 6 6 6 6 6 6 5 6 5 4 2 4 6 7 10
18 21 23 22 20 20 20 19 18 17 17 16 16 15 15 14 14 13 13 14 13 12 11 10 9 8 7 6 5 5 5 5 5 5 4 3 4 6 2 3 5 7 9
19 20 22 22 21 20 20 19 19 18 17 16 16 15 15 14 14 12 11 12 13 13 11 10 9 8 7 6 5 5 4 4 3 3 4 2 2 4 5 1 6 7 9
17 17 20 22 21 20 20 20 19 19 19 17 16 16 16 15 14 14 12 12 12 12 11 11 9 8 7 6 5 4 3 2 1 2 2 2 3 3 5 4 4 7 9
15 16 17 22 21 21 20 20 19 19 19 18 17 17 17 15 14 14 13 11 11 11 11 10 9 7 6 6 4 3 2 2 1 3 2 3 2 1 6 7 6 9 10
14 16 16 20 20 20 21 20 20 19 18 18 18 17 17 17 15 14 13 13 13 11 10 10 8 7 5 4 3 3 3 4 4 1 2 1 4 3 7 9 9 11 11
14 14 17 20 19 19 19 20 20 19 19 20 19 18 18 18 17 15 13 13 13 12 11 9 8 8 6 5 5 5 4 4 7 3 3 3 3 5 9 8 8 12 11
13 13 14 18 19 18 18 19 18 18 18 18 19 20 19 18 18 17 15 15 13 12 11 10 9 7 6 4 4 3 4 7 7 4 4 3 2 5 7 8 5 8 10
9 11 12 16 16 17 17 17 18 18 19 19 19 19 19 18 18 18 17 15 14 12 10 10 8 7 7 5 5 4 5 6 9 5 6 4 1 5 6 7 6 8 9
7 9 12 12 15 16 16 17 17 17 18 20 19 19 18 17 17 16 16 15 14 13 12 11 9 8 7 6 6 5 6 8 9 6 6 4 3 6 6 7 6 6 7
8 10 11 13 14 16 16 15 17 19 19 18 18 18 15 13 14 15 14 14 15 14 13 12 10 8 8 7 7 6 6 5 6 5 5 3 5 7 6 6 6 5 6
12 13 13 14 16 15 12 15 16 15 14 14 15 15 13 13 12 13 14 15 14 14 12 10 9 8 7 4 4 6 4 4 5 5 5 4 7 8 9 8 8 9 7
13 9 14 13 14 15 13 10 8 9 9 10 16 14 13 11 10 10 8 8 9 12 7 9 8 7 6 5 4 4 3 4 4 4 4 6 9 10 10 10 9 9 10
10 13 11 15 14 15 11 12 11 11 11 10 13 15 11 9 10 10 8 9 8 6 7 7 5 6 7 7 7 6 6 5 3 3 4 8 10 11 11 12 11 11 10
10 12 12 10 14 13 14 11 12 13 12 13 13 16 14 13 11 11 9 8 7 6 6 5 6 6 7 8 7 7 7 6 6 5 4 6 9 11 12 13 13 13 11
12 14 12 11 12 13 14 15 12 11 12 13 12 13 18 13 11 11 11 10 7 7 6 6 6 6 7 7 7 8 8 7 7 6 5 4 8 9 11 13 14 12 13
12 12 12 11 11 15 16 15 12 12 13 13 12 14 17 15 14 13 11 10 9 8 10 9 8 6 7 7 8 7 7 8 7 8 6 4 5 9 10 10 14 15 13
13 12 11 10 12 15 14 12 11 12 12 11 11 11 15 16 16 13 10 11 10 7 6 5 6 6 6 6 6 6 6 6 8 8 6 6 5 5 7 11 10 10 10
12 11 12 10 14 13 12 11 11 12 10 9 9 10 14 15 15 14 11 10 11 7 5 6 6 6 6 7 6 6 5 7 9 6 8 8 7 5 4 6 10 9 9
11 12 11 9 11 10 8 8 8 9 9 9 9 10 15 13 17 13 10 10 9 8 7 6 8 6 5 5 4 5 7 8 8 7 8 7 6 6 5 3 7 8 9
12 12 11 8 6 7 7 7 8 10 8 8 9 13 14 13 14 13 10 10 10 9 10 10 6 7 5 3 2 6 7 8 8 7 6 6 7 7 5 4 4 4 6
15 13 10 8 5 8 8 7 4 7 6 7 8 11 12 13 13 11 10 9 9 9 8 8 8 4 3 4 4 4 5 4 5 5 5 5 7 5 6 5 3 4 5
13 14 9 8 7 10 10 8 7 8 6 7 7 7 9 12 12 13 12 10 11 9 8 8 8 8 6 4 7 5 3 3 2 3 4 1 2 3 4 5 7 5 5
15 9 8 7 7 9 13 11 13 7 8 6 8 7 8 12 12 11 11 11 11 6 6 7 7 6 6 6 4 6 4 4 3 3 4 2 1 4 3 3 4 5 6
10 9 8 6 7 10 12 11 10 8 6 7 8 12 10 9 10 11 12 12 10 6 7 7 8 8 7 5 5 4 6 5 3 1 3 3 1 1 1 1 2 5 6
8 6 5 6 8 11 12 12 11 11 10 10 11 10 9 8 8 9 11 9 8 8 8 7 8 9 7 7 6 5 5 5 6 3 3 2 1 2 2 1 4 6 5
Wind_Direction
175 162 166 169 166 159 160 163 162 161 158 157 157 156 156 155 153 152 150 146 144 143 139 134 124 116 109 103 95 87 77 67 50 47 42 41 55 2 351 163 164 178 143
149 164 168 169 169 162 163 166 166 169 166 166 164 162 161 158 158 157 154 150 150 147 145 140 135 129 124 116 106 96 85 74 61 41 33 44 32 2 3 208 175 136 160
152 166 171 169 171 167 166 169 170 172 168 172 169 166 165 162 162 162 159 156 155 152 151 146 141 140 135 130 121 110 97 89 63 36 51 340 341 7 4 335 197 180 177
156 167 174 171 169 174 172 172 176 173 171 173 170 167 169 166 165 164 164 164 162 157 154 154 152 154 149 142 138 124 115 101 70 25 301 2 319 13 340 332 287 196 187
164 171 176 172 171 177 179 177 179 177 172 172 172 174 171 166 167 166 166 168 169 170 164 160 162 164 162 160 166 165 173 167 173 244 340 334 311 96 323 314 260 224 200
166 173 176 177 178 180 183 182 180 180 178 175 176 178 173 169 169 172 171 173 176 178 175 174 173 174 179 185 197 207 223 218 247 256 293 9 276 4 312 298 271 238 196
169 182 184 184 179 187 188 187 183 182 184 181 180 180 180 175 174 173 174 180 183 182 184 187 189 189 199 219 233 229 231 230 252 238 259 278 260 321 314 301 268 200 201
174 183 189 187 188 190 193 193 187 185 188 189 184 183 184 181 177 174 178 185 187 190 191 197 205 207 215 230 255 260 265 258 233 242 258 258 348 305 317 312 179 184 200
176 182 189 193 196 197 199 199 192 192 192 193 193 189 187 185 181 178 182 186 189 191 200 206 210 219 233 225 245 249 262 263 271 243 251 250 98 305 311 325 227 200 203
187 193 195 201 198 205 205 206 200 199 199 197 198 192 189 187 189 189 183 192 190 195 201 206 211 226 235 234 246 252 258 260 251 255 237 250 274 295 305 324 252 230 215
208 202 202 202 204 206 207 208 204 204 207 203 203 197 189 196 193 192 198 189 195 200 202 205 210 221 228 233 244 247 252 254 257 246 247 168 250 281 283 286 274 242 223
228 212 206 203 209 208 212 211 209 209 211 208 205 201 200 198 197 203 197 200 202 206 208 206 211 219 220 245 224 227 254 268 249 254 251 216 248 264 268 270 274 238 230
254 229 213 209 208 208 211 208 209 208 210 210 209 202 198 196 198 195 200 199 206 207 209 203 206 218 219 238 248 256 256 246 244 245 247 238 246 249 251 254 258 236 216
261 256 228 211 209 208 209 214 213 210 206 208 206 200 201 200 196 199 201 197 201 202 206 211 214 228 227 231 244 252 247 250 238 253 249 241 248 247 248 245 243 234 217
263 268 259 222 213 206 208 217 216 217 212 209 203 199 201 202 198 195 199 197 191 195 211 218 223 227 234 234 237 246 252 252 251 259 262 228 242 246 238 244 240 234 224
257 260 265 234 218 203 212 214 213 215 214 211 206 203 203 198 196 192 197 196 190 193 201 215 217 224 236 239 237 242 252 257 247 249 252 242 253 256 243 234 235 239 232
251 253 245 244 221 211 213 216 216 215 213 210 212 206 202 198 194 193 198 196 195 194 195 193 191 195 229 232 243 247 250 247 247 245 247 246 238 229 241 238 244 243 227
251 247 253 241 221 215 220 211 219 218 214 214 210 205 201 199 194 193 197 203 201 195 193 197 212 192 221 232 247 253 251 255 252 242 249 254 250 259 213 246 242 209 213
245 252 261 243 235 220 222 222 216 217 214 212 204 197 195 196 195 201 196 204 203 195 190 203 204 214 215 229 244 256 257 252 251 248 251 250 235 242 246 248 212 205 213
255 250 249 247 236 224 220 216 212 210 208 202 193 192 182 196 202 199 188 198 194 191 201 204 215 203 230 245 261 282 279 260 251 236 242 244 235 232 228 228 202 204 205
258 255 245 256 211 197 188 199 211 207 196 197 191 183 189 198 199 195 187 177 190 195 197 204 204 208 212 222 282 257 249 240 231 224 231 234 227 213 214 190 207 221 184
261 264 266 266 238 201 196 191 188 174 191 187 182 187 191 195 192 186 180 184 180 185 189 200 195 175 212 194 231 245 265 193 208 211 216 226 220 204 201 183 176 226 206
259 258 266 276 232 206 194 165 134 128 131 178 183 176 191 187 184 180 174 176 180 184 190 188 193 190 222 185 216 261 221 237 165 158 175 155 248 213 196 183 172 210 212
257 267 267 268 226 205 182 183 180 181 164 177 168 165 170 178 174 165 171 172 176 159 165 188 183 193 220 215 191 226 250 298 262 165 154 124 323 235 194 177 180 195 203
265 276 276 238 194 182 185 185 178 181 144 148 152 152 156 160 156 160 165 169 165 170 179 188 182 198 204 217 208 175 219 224 261 238 121 143 130 72 48 185 193 208 195
264 259 240 197 175 171 176 176 180 163 146 145 147 146 148 149 142 153 157 161 164 170 177 182 192 196 198 206 208 205 208 216 225 203 125 80 108 77 34 282 212 190 181